Location: LewisvilleTX
(33.0462°N, 96.9942°W)
Time: 22:36:18
(UTC+00:00)

Envisat - Pass Details

Date: 06 October 2020
Orbit: 764 x 766 km, 98.1° (Epoch: 26 October)

Event Time Altitude Azimuth Distance (km) Brightness Sun altitude
Rises 11:43:44 0° 24° (NNE) 3,233 6.6 -9.7°
Reaches altitude 10° 11:46:17 10° 35° (NE) 2,303 6.0 -9.2°
Maximum altitude 11:50:47 32° 97° (E) 1,303 5.2 -8.2°
Drops below altitude 10° 11:55:15 10° 160° (SSE) 2,290 5.8 -7.3°
Sets 11:57:46 0° 170° (S) 3,212 6.4 -6.8°
